Wind_Speed
2 5 5 3 3 3 7 6 6 3 4 1 2 4 7 17 18 24 23 24 25 27 23 19 16 13 11 10 8 6 10 13 15 17 18 19 17 14 13 19 19 17 10 8
5 5 7 8 7 9 5 6 2 2 2 3 6 7 8 16 19 24 18 20 25 24 22 21 20 17 14 11 10 8 10 12 12 13 15 17 18 18 16 17 21 20 18 16
7 5 7 7 7 6 3 5 5 2 4 3 1 7 6 8 17 24 14 19 24 27 27 25 24 20 17 15 12 10 12 12 11 10 9 12 16 20 20 19 22 21 19 16
4 5 7 8 6 6 4 7 7 3 1 3 2 5 4 6 13 17 20 27 30 32 30 24 24 23 21 16 14 12 10 11 9 7 5 5 10 17 12 13 14 16 16 17
7 5 11 9 3 6 2 8 6 7 2 2 2 2 6 4 6 13 21 29 33 34 34 25 24 19 17 17 15 13 11 10 9 6 4 5 8 13 21 17 18 18 17 20
5 6 6 3 7 6 12 6 7 5 3 2 5 5 5 6 12 6 17 23 31 35 35 28 23 20 20 19 16 14 14 12 10 8 6 10 9 11 14 19 22 20 15 13
2 2 3 10 8 5 4 5 3 4 3 5 5 1 10 4 6 9 19 26 29 33 35 34 27 22 22 23 18 16 15 16 12 13 9 13 14 11 12 15 17 18 9 6
6 2 8 5 7 8 4 6 5 4 2 4 2 6 6 6 14 19 23 24 25 30 30 32 30 24 20 21 21 16 16 18 15 17 20 16 12 11 13 10 7 7 6 7
5 5 1 4 4 4 5 3 5 6 2 2 4 6 9 9 6 6 12 20 24 26 26 28 27 23 17 20 18 16 14 16 16 13 15 18 16 10 7 7 7 8 8 8
7 4 1 3 6 8 3 9 3 3 2 5 5 5 7 4 8 4 10 20 23 23 23 27 23 21 19 18 17 13 14 14 14 14 14 13 11 12 10 9 11 10 10 9
6 4 2 5 6 10 2 1 5 5 4 4 2 6 7 9 7 11 13 24 24 23 23 27 20 18 17 16 15 12 11 13 13 13 13 12 11 12 10 8 7 9 10 9
7 6 4 10 4 6 1 6 6 5 5 2 2 6 4 7 9 18 20 24 23 21 22 24 20 19 18 16 16 13 11 12 13 13 13 12 11 10 9 9 9 10 9 9
4 2 2 6 6 2 5 5 4 6 3 6 4 5 3 4 6 14 23 23 22 24 24 25 23 21 18 17 18 18 15 13 12 13 13 12 11 11 9 8 8 10 10 8
7 3 8 10 8 5 6 6 6 7 4 5 6 3 4 3 6 10 16 25 27 27 27 26 25 23 21 18 18 20 19 17 14 13 14 15 13 11 9 10 10 9 8 5
4 3 3 5 6 7 7 9 13 9 8 7 7 10 8 7 9 19 27 26 28 30 30 28 30 25 22 20 20 21 20 19 16 14 13 14 13 11 11 11 10 9 4 2
4 3 2 4 6 10 4 10 17 16 2 7 4 6 6 10 10 11 21 27 32 34 35 32 31 27 25 24 22 22 22 19 18 16 14 14 11 10 9 9 8 6 6 7
3 2 3 4 5 5 5 14 13 10 6 7 7 11 5 4 9 18 26 30 35 39 37 34 35 30 27 27 26 24 22 19 20 20 18 17 12 10 10 10 8 8 9 8
2 2 2 3 2 5 8 7 18 19 14 14 3 6 13 11 16 21 29 34 36 40 41 37 34 32 30 28 27 25 23 21 21 21 20 17 14 13 12 10 10 11 11 10
14 4 1 3 3 5 5 5 10 8 13 13 14 8 14 11 9 10 26 34 37 41 43 41 36 33 31 30 29 26 25 23 21 20 18 18 16 13 13 13 14 13 11 10
6 3 2 3 4 6 7 4 23 6 12 7 13 7 11 14 4 5 25 28 36 41 46 44 39 35 33 31 30 29 28 25 22 19 18 17 15 14 14 15 15 13 12 10
4 3 11 3 4 7 8 6 16 10 9 21 19 13 23 7 16 21 25 28 32 39 42 44 39 37 33 32 30 31 29 27 23 20 18 18 16 15 16 16 15 14 13 12
6 7 5 3 5 8 3 2 7 8 24 18 20 13 18 30 24 22 21 31 38 42 43 40 43 39 36 34 32 33 32 27 23 21 20 18 19 20 20 18 17 15 13 12
3 4 3 8 6 3 9 12 12 15 17 19 25 27 15 22 31 29 28 28 39 44 45 42 44 40 37 36 36 34 32 28 26 24 22 22 23 23 21 20 17 14 13 11
3 5 3 2 4 2 17 6 21 26 28 29 23 23 18 23 30 35 30 35 42 44 46 44 46 41 40 39 37 33 30 29 27 25 26 26 26 25 23 20 16 13 13 13
4 7 2 6 9 15 6 17 28 32 27 29 30 26 21 18 28 35 33 39 41 45 46 48 46 42 42 40 37 33 32 31 29 27 29 29 28 26 25 21 17 14 13 10
7 6 4 4 0 3 11 20 30 38 30 38 38 35 23 19 29 33 39 39 42 47 46 45 47 44 44 40 37 35 35 32 31 31 32 32 31 29 27 24 21 19 17 15
Wind_Direction
112 75 226 236 131 193 144 181 186 157 120 38 212 215 148 162 175 199 191 192 204 209 210 205 201 195 187 177 167 172 181 188 194 198 198 200 202 209 212 206 206 213 226 251
54 218 218 117 111 119 120 146 208 310 104 136 223 239 162 175 205 205 193 183 211 210 212 205 208 200 195 187 164 132 162 171 180 197 207 212 218 216 213 207 213 225 230 243
164 220 148 127 137 135 192 196 204 76 137 188 284 273 192 210 197 214 219 193 205 212 213 206 208 209 202 197 179 163 149 142 147 154 186 208 211 212 216 220 222 223 218 242
224 247 159 145 180 150 208 195 122 125 120 213 270 268 293 206 194 197 200 195 199 211 219 208 206 211 211 202 194 185 184 179 158 154 147 186 204 210 202 186 187 201 222 246
235 154 150 161 204 162 112 86 110 101 100 335 326 61 266 141 205 210 200 196 198 210 212 210 212 215 215 206 210 201 199 210 194 191 184 152 166 172 180 189 198 214 243 268
209 116 129 162 44 106 129 83 49 60 85 323 218 149 268 192 211 197 214 202 196 203 214 209 217 220 225 211 211 211 214 217 187 159 165 165 163 177 206 218 238 249 247 259
5 102 50 108 81 14 81 81 9 1 360 230 326 210 246 251 238 199 196 212 201 202 210 212 212 209 219 214 214 216 210 211 192 185 166 170 190 208 222 251 248 239 248 275
153 226 165 183 172 178 154 144 148 206 224 277 3 240 247 236 250 242 223 217 198 203 208 209 208 210 215 217 217 216 215 212 210 179 184 182 205 228 241 255 273 290 300 293
122 263 163 146 129 115 182 150 165 106 40 358 233 283 292 243 267 194 170 181 196 208 207 206 204 204 207 216 216 218 214 220 219 215 213 212 220 248 251 258 280 291 291 302
203 140 332 124 101 49 156 149 95 16 206 270 276 273 246 280 211 190 157 178 192 200 201 203 206 202 208 212 214 219 221 220 217 217 224 228 233 244 238 257 260 280 294 288
139 117 166 121 208 169 136 172 63 117 141 203 286 268 214 230 191 179 187 188 192 194 195 196 197 197 209 209 211 209 209 211 210 214 214 220 220 237 246 253 290 309 296 303
202 142 166 207 201 174 198 164 154 135 196 211 146 277 288 224 191 181 182 189 192 187 189 191 193 198 203 199 200 198 198 201 208 212 215 223 226 237 252 266 281 300 297 295
181 192 74 348 350 75 207 162 130 101 75 184 154 276 318 34 176 198 177 188 187 188 189 196 197 197 190 190 205 200 192 204 212 216 217 218 228 235 246 265 279 291 285 290
160 126 167 209 212 159 182 183 180 128 133 174 214 243 247 251 209 204 194 188 190 191 188 195 198 200 195 193 203 211 214 218 218 218 221 219 228 242 259 266 279 282 289 296
82 144 237 259 246 179 190 181 181 190 193 181 200 202 242 203 204 212 198 190 193 192 190 199 201 201 198 198 203 214 220 222 222 220 218 220 232 245 247 256 265 277 266 191
351 165 196 262 254 192 227 212 188 210 147 276 164 251 219 218 201 183 196 186 194 196 195 200 202 199 197 199 202 211 217 219 218 219 218 219 231 249 247 243 247 229 182 163
22 37 47 260 327 132 260 211 192 212 194 157 180 222 160 181 194 193 184 194 199 200 199 203 204 199 198 201 206 209 210 213 216 219 221 227 239 237 234 234 215 183 170 159
291 32 115 248 4 206 242 215 195 207 216 200 189 186 179 201 219 204 198 194 203 207 201 206 201 202 204 206 208 211 210 211 216 218 222 228 218 213 220 213 188 178 168 159
204 143 253 180 230 278 266 197 177 170 250 208 222 217 192 207 189 209 208 207 206 205 206 210 202 203 206 210 212 211 214 212 211 213 217 219 213 217 211 196 184 180 174 167
147 88 157 139 180 222 243 300 206 87 257 240 203 196 159 158 159 233 199 210 216 210 207 210 207 208 208 212 214 214 215 212 211 213 214 212 212 214 200 188 185 179 177 181
129 155 211 200 226 282 252 275 140 160 239 244 244 202 168 187 219 228 201 204 215 216 210 212 209 211 211 213 212 216 215 214 209 206 207 210 209 198 191 184 183 185 188 188
169 154 182 148 196 248 339 48 133 303 332 326 325 304 242 243 226 231 221 214 209 213 212 207 209 211 210 213 214 217 212 206 203 202 207 206 197 189 186 187 186 187 191 190
247 196 201 187 204 216 3 339 351 359 335 331 326 321 285 249 233 222 219 214 211 212 210 205 206 208 210 213 216 217 211 202 199 202 206 197 191 186 187 188 189 189 187 192
223 29 224 334 253 261 325 29 352 347 334 325 328 339 296 248 239 213 216 207 203 208 207 198 202 204 210 212 214 213 207 201 201 204 199 193 189 185 187 188 195 201 196 187
253 333 256 272 287 324 176 348 344 338 332 335 329 325 317 279 241 220 207 205 205 206 204 199 199 203 210 211 208 204 204 201 202 202 197 192 189 190 190 192 196 197 193 191
204 212 196 239 272 260 289 308 322 327 324 329 330 319 315 295 244 219 209 207 205 207 202 199 202 203 210 209 205 200 202 204 205 199 197 196 191 194 196 196 193 188 190 185
Height
1502 1511 1516 1508 1511 1512 1517 1525 1528 1523 1522 1528 1531 1526 1524 1522 1525 1522 1524 1528 1532 1535 1540 1544 1546 1550 1551 1553 1554 1555 1557 1560 1562 1564 1567 1570 1573 1577 1579 1581 1583 1585 1586 1588
1509 1517 1505 1508 1510 1514 1517 1526 1529 1524 1522 1528 1528 1526 1519 1520 1518 1519 1523 1529 1533 1537 1540 1542 1544 1548 1550 1553 1555 1556 1557 1559 1561 1564 1567 1570 1573 1575 1577 1580 1581 1584 1584 1586
1509 1503 1499 1507 1515 1518 1523 1526 1526 1524 1525 1525 1528 1528 1521 1514 1515 1519 1522 1529 1532 1534 1535 1539 1542 1545 1549 1551 1554 1556 1558 1560 1562 1564 1566 1568 1570 1572 1575 1577 1579 1580 1582 1583
1502 1495 1500 1508 1511 1513 1525 1514 1516 1525 1531 1542 1529 1545 1519 1511 1511 1513 1518 1521 1523 1529 1535 1537 1539 1542 1546 1550 1554 1556 1559 1561 1563 1565 1566 1568 1570 1572 1575 1575 1576 1578 1580 1581
1501 1497 1502 1506 1504 1506 1518 1514 1519 1524 1537 1538 1533 1543 1521 1510 1513 1509 1509 1513 1519 1522 1529 1533 1536 1540 1544 1549 1552 1556 1559 1562 1565 1566 1568 1569 1570 1570 1574 1575 1575 1577 1579 1580
1493 1491 1496 1500 1503 1504 1513 1522 1529 1531 1542 1556 1534 1538 1525 1514 1499 1500 1502 1507 1512 1517 1525 1531 1537 1540 1543 1548 1551 1554 1559 1562 1564 1566 1568 1569 1571 1573 1575 1575 1575 1577 1578 1577
1496 1496 1498 1497 1511 1512 1516 1529 1555 1555 1558 1560 1541 1541 1512 1495 1492 1490 1493 1497 1505 1511 1520 1527 1533 1536 1539 1544 1548 1552 1558 1561 1564 1567 1568 1570 1571 1571 1571 1572 1574 1574 1575 1575
1514 1520 1503 1497 1500 1510 1520 1526 1549 1560 1564 1555 1538 1540 1508 1486 1484 1486 1489 1493 1502 1508 1515 1521 1528 1532 1537 1541 1546 1550 1555 1557 1562 1563 1567 1569 1570 1572 1573 1573 1573 1573 1574 1573
1511 1509 1492 1494 1495 1501 1519 1529 1525 1545 1550 1558 1537 1517 1491 1481 1483 1483 1489 1493 1498 1504 1512 1517 1524 1529 1534 1539 1544 1548 1552 1555 1559 1561 1566 1567 1569 1570 1571 1572 1572 1572 1573 1573
1491 1508 1493 1496 1494 1502 1506 1511 1534 1546 1553 1555 1536 1528 1511 1488 1484 1484 1487 1490 1496 1502 1510 1515 1520 1526 1532 1537 1542 1546 1550 1553 1557 1560 1562 1564 1568 1569 1571 1572 1571 1572 1572 1571
1485 1495 1503 1497 1498 1504 1513 1518 1525 1529 1541 1541 1549 1520 1488 1484 1482 1482 1482 1486 1493 1499 1506 1513 1519 1525 1531 1536 1540 1545 1548 1551 1554 1558 1560 1563 1567 1568 1571 1572 1570 1569 1569 1568
1480 1494 1513 1500 1484 1486 1492 1501 1508 1523 1535 1540 1545 1522 1477 1476 1477 1478 1481 1485 1491 1497 1504 1511 1518 1523 1528 1533 1539 1542 1546 1549 1553 1557 1559 1561 1564 1566 1566 1568 1569 1569 1569 1568
1480 1498 1516 1507 1495 1488 1491 1495 1500 1507 1517 1532 1536 1512 1477 1476 1478 1479 1480 1485 1490 1497 1503 1510 1516 1521 1526 1531 1536 1541 1544 1548 1551 1555 1557 1560 1563 1564 1565 1567 1568 1569 1569 1568
1476 1493 1495 1500 1496 1487 1494 1489 1492 1497 1524 1521 1517 1494 1484 1478 1478 1480 1482 1484 1488 1494 1500 1507 1513 1518 1523 1528 1534 1538 1543 1547 1550 1553 1556 1560 1560 1562 1564 1566 1567 1567 1566 1566
1478 1489 1485 1479 1475 1474 1473 1478 1486 1493 1490 1496 1491 1493 1477 1476 1473 1474 1475 1483 1489 1492 1498 1504 1509 1514 1520 1525 1530 1535 1540 1545 1548 1552 1554 1556 1559 1561 1563 1564 1566 1566 1566 1566
1483 1491 1488 1481 1471 1474 1475 1471 1473 1476 1483 1484 1481 1482 1465 1465 1469 1471 1474 1479 1485 1489 1493 1499 1506 1511 1517 1522 1528 1532 1537 1542 1546 1549 1552 1555 1558 1560 1561 1563 1565 1565 1566 1566
1488 1489 1494 1489 1483 1478 1487 1467 1470 1467 1467 1471 1485 1462 1461 1464 1465 1465 1469 1475 1480 1484 1489 1494 1500 1507 1513 1519 1525 1529 1534 1539 1543 1546 1550 1553 1555 1557 1560 1562 1563 1565 1566 1567
1488 1490 1497 1496 1483 1498 1458 1445 1446 1452 1450 1454 1453 1454 1454 1457 1458 1459 1462 1467 1474 1480 1484 1489 1497 1504 1510 1516 1522 1527 1531 1535 1540 1544 1548 1550 1553 1556 1558 1560 1563 1565 1567 1569
1481 1488 1493 1495 1498 1477 1452 1445 1448 1457 1452 1443 1446 1448 1453 1456 1457 1457 1459 1463 1466 1472 1479 1483 1493 1500 1507 1513 1519 1524 1528 1532 1537 1541 1545 1547 1551 1554 1557 1560 1562 1565 1567 1569
1480 1485 1489 1502 1490 1489 1453 1434 1430 1441 1455 1430 1436 1442 1449 1454 1463 1453 1453 1458 1463 1467 1475 1479 1490 1497 1503 1509 1515 1520 1524 1529 1534 1538 1542 1546 1550 1553 1556 1560 1562 1565 1567 1569
1486 1488 1486 1494 1486 1470 1441 1436 1435 1464 1449 1427 1428 1435 1443 1448 1445 1446 1448 1452 1458 1464 1471 1476 1488 1493 1500 1506 1512 1517 1521 1525 1531 1536 1541 1545 1549 1552 1556 1559 1562 1564 1567 1569
1471 1481 1483 1487 1483 1479 1437 1438 1449 1448 1433 1432 1432 1436 1439 1438 1441 1444 1445 1449 1452 1458 1466 1473 1483 1489 1496 1502 1508 1512 1517 1523 1530 1535 1539 1543 1547 1551 1555 1558 1561 1564 1566 1569
1471 1462 1464 1462 1455 1437 1437 1442 1443 1442 1440 1434 1430 1430 1433 1432 1434 1437 1440 1442 1448 1452 1458 1468 1478 1485 1492 1498 1503 1508 1514 1521 1527 1533 1537 1541 1545 1550 1554 1557 1560 1563 1566 1569
1460 1461 1462 1451 1436 1435 1438 1438 1437 1436 1434 1431 1431 1429 1428 1425 1424 1430 1433 1437 1441 1448 1453 1463 1472 1480 1487 1493 1499 1506 1513 1519 1525 1530 1534 1538 1542 1547 1552 1556 1560 1563 1566 1569
1464 1461 1456 1450 1437 1433 1432 1434 1433 1429 1428 1427 1425 1427 1427 1423 1422 1425 1428 1432 1435 1442 1449 1457 1466 1475 1482 1488 1494 1502 1509 1515 1521 1527 1531 1535 1540 1545 1549 1554 1559 1562 1565 1568
1458 1455 1454 1448 1441 1442 1436 1433 1433 1431 1428 1427 1426 1416 1419 1423 1423 1423 1425 1426 1430 1436 1445 1455 1463 1470 1477 1484 1490 1498 1505 1511 1517 1521 1526 1530 1536 1541 1546 1551 1555 1559 1563 1566